OPAL

Satellite information

Favourite Embed

Satellite Type and Status

PAYLOADIN ORBIT

Key statistics

Satellite OPAL at a glance.

Uptime

9293

Days in orbit

Revolutions

≈ 14.4

Per day

Orbit

SSO

Sun Synchronous Orbit

Inclination

100.2

Latest

Satellite identification and parameters

Extended collection of information and parameters for OPAL.

Object identification

Identified? True

Debris? False

Object name: OPAL

International designator: 2000-004C

Object number (NORAD): 26063

Object ID (CCSDS): 26063

Country: UNITED STATES OF AMERICA (US)

Current information (Y/N): Y

RCS size: MEDIUM

Orbital parameters

Period: 100.154 minutes

Inclination: 100.2112 deg

SMA: 7143.962 km

Apoapsis: 790.99 km

Periapsis: 740.664 km

RAAN: 55.5988 deg

Eccentricy: 0.0035223

Argument of periapsis: 292.5002 deg

Mean anomaly: 67.2451 deg

Mean motion: 14.37785297 rev/day

Mean motion (dot): 0.00000068 rev/day2

B* drag term: 0.000042081 1/REarth

Two-line elements (TLE)

Creation date: July 6, 2025, 6:05 p.m.

Reference frame: TEME

Reference center: EARTH

Epoch: July 6, 2025, 1:10 p.m. UTC

TLE line 0: 0 OPAL

TLE line 1: 1 26063U 00004C 25187.54869774 .00000068 00000-0 42081-4 0 9997

TLE line 2: 2 26063 100.2112 55.5988 0035223 292.5002 67.2451 14.37785297333615

Live tracking on map

Real-time ground track for satellite OPAL.

In-orbit conjunctions

A list of the most updated potential collisions computed for object OPAL.

Target Orbit TCA Probability of collision Miss distance Type
DMSP 5D-2 F11 DEB SSO 2025-06-21 15:28:33 0.0001316912 601.0 (m) DEBRIS
COSMOS 2251 DEB LEO 2025-04-06 19:37:59 0.0001209291 333.0 (m) DEBRIS
FENGYUN 1C DEB SSO 2024-12-31 13:03:22 0.0001842184 722.0 (m) DEBRIS
CZ-6A DEB LEO 2024-11-24 07:33:22 0.0007166333 426.0 (m) DEBRIS
COSMOS 2251 DEB LEO 2024-10-11 22:54:59 0.0007513447 121.0 (m) DEBRIS

Associated space launch

The JAWSAT (Joint Air Force Academy / Weber State University Satellite) project was developed by students working alongside aerospace professionals. Initially designed with a pulsed-plasma thruster to train Air Force Academy cadets (see JAWSAT), the mission has since evolved to include the efforts of several universities, local aerospace companies, the Air Force Academy, the Air Force Research Laboratory, and NASA. Utilizing breakthrough technologies, JAWSAT deployed four satellites when it reached orbit. The onboard imaging system recorded the deployment of each payload with its six digital cameras. The first free-flying Academy satellite, FalconSat-1 carried the CHAWS (Charging Hazards and Wake Studies) experiment developed by the Physics Department at the Academy.

OPAL was lifted into orbit during the mission ‘Minotaur I | JAWSAT & FalconSat 1’, on board a Minotaur I space rocket.

The launch took place on Jan. 27, 2000, 3:03 a.m. from Space Launch Complex 8.

For more information about the launch, click the button.

Launch to space Minotaur I | JAWSAT & FalconSat 1
Minotaur I | JAWSAT & FalconSat 1

Agency: N/A

Status: Launch Successful

Launch date: Jan. 27, 2000, 3:03 a.m. UTC

Rocket: Minotaur I

Launch pad: Space Launch Complex 8

Location: Vandenberg SFB, CA, USA

...

Latest news about this satellite

There are no fresh news available about this satellite. Check back as we update our databases every day.


Newsletter sign-up

Weekly statistics, charts and insights to help you stay on top of the space industry.